This demonstration page uses our WeatherBlox Daily Observations layout. Learn more.

Left ArrowRight Arrow

Hourly Observations for June 15, 2021

Temp ( °F °C ) Dew Point ( °F °C ) Humidity (%) Winds ( mph kmh ) Pressure ( in mb ) Visibility ( mi km ) Precip ( " mm )
12:53 am 00:53 Clear 65 18.3 54 12.2 68 68 NW 6 9 29.96 1014 10 16 N/A
1:53 am 01:53 Clear 63 17.2 54 12.2 73 73 NNW 5 7 29.97 1015 10 16 N/A
2:53 am 02:53 Clear 61 16.1 55 12.8 81 81 N N/A 29.98 1015 10 16 N/A
3:53 am 03:53 Clear 58 14.4 56 13.3 93 93 W 3 6 29.98 1015 10 16 N/A
4:53 am 04:53 Clear 58 14.4 55 12.8 90 90 N N/A 29.98 1015 10 16 N/A
5:53 am 05:53 Clear 57 13.9 55 12.8 93 93 N N/A 29.99 1016 10 16 N/A
6:53 am 06:53 Sunny 59 15 56 13.3 90 90 N N/A 30.01 1016 10 16 N/A
7:53 am 07:53 Sunny 65 18.3 55 12.8 70 70 N N/A 30.01 1016 10 16 N/A
8:53 am 08:53 Sunny 68 20 56 13.3 65 65 NNW 7 11 30.03 1017 10 16 N/A
9:53 am 09:53 Sunny 72 22.2 56 13.3 57 57 N 7 11 30.03 1017 10 16 N/A
10:53 am 10:53 Sunny 75 23.9 56 13.3 52 52 N 8 13 30.03 1017 10 16 N/A
11:53 am 11:53 Sunny 78 25.6 57 13.9 48 48 NNW 12 19 30.02 1017 10 16 N/A
12:53 pm 12:53 Mostly Sunny 79 26.1 55 12.8 44 44 N 12 19 30.02 1017 10 16 N/A
1:53 pm 13:53 Partly Cloudy 79 26.1 55 12.8 44 44 N 9 15 30.02 1017 10 16 N/A
2:53 pm 14:53 Sunny 80 26.7 53 11.7 39 39 NNW 9 15 30.01 1016 10 16 N/A
3:53 pm 15:53 Mostly Cloudy 77 25 53 11.7 43 43 NNW 7 11 30.00 1016 10 16 N/A
4:53 pm 16:53 Partly Cloudy 81 27.2 52 11.1 37 37 N 5 7 29.99 1016 10 16 N/A
6:53 pm 18:53 Partly Cloudy 77 25 52 11.1 42 42 NNW 7 11 29.99 1016 10 16 N/A
7:53 pm 19:53 Partly Cloudy 77 25 53 11.7 43 43 N 6 9 29.98 1015 10 16 N/A
8:53 pm 20:53 Mostly Cloudy 72 22.2 59 15 64 64 N 3 6 29.98 1015 10 16 N/A
9:53 pm 21:53 Mostly Clear 64 17.8 59 15 84 84 N N/A 29.98 1015 10 16 N/A
10:53 pm 22:53 Mostly Cloudy 65 18.3 59 15 81 81 N N/A 30.00 1016 10 16 N/A
11:53 pm 23:53 Cloudy 66 18.9 60 15.6 81 81 NNW 3 6 30.00 1016 10 16 N/A

Powered by AerisWeather